Time,TemperatureF,DewpointF,PressureIn,WindDirection,WindDirectionDegrees,WindSpeedMPH,WindSpeedGustMPH,Humidity,HourlyPrecipIn,Conditions,Clouds,dailyrainin,SoftwareType,DateUTC
2013-08-21 00:03:00,58.2,57.0,30.08,NW,320,0.0,0.0,94,0.00,,,0.00,weatherlink.com 1.10,2013-08-21 04:03:00,
2013-08-21 00:18:00,58.0,56.0,30.08,NW,320,0.0,0.0,94,0.00,,,0.00,weatherlink.com 1.10,2013-08-21 04:18:00,
2013-08-21 00:33:00,57.8,57.0,30.08,NW,320,0.0,0.0,96,0.00,,,0.00,weatherlink.com 1.10,2013-08-21 04:33:00,
2013-08-21 00:48:00,57.7,56.0,30.08,NW,320,0.0,1.0,95,0.00,,,0.00,weatherlink.com 1.10,2013-08-21 04:48:00,
2013-08-21 01:03:00,57.8,56.0,30.08,NW,320,2.0,3.0,95,0.00,,,0.00,weatherlink.com 1.10,2013-08-21 05:03:00,
2013-08-21 01:18:00,57.9,56.0,30.08,NW,320,0.0,1.0,94,0.00,,,0.00,weatherlink.com 1.10,2013-08-21 05:18:00,
2013-08-21 01:33:00,57.6,56.0,30.08,NW,320,0.0,0.0,95,0.00,,,0.00,weatherlink.com 1.10,2013-08-21 05:33:00,
2013-08-21 01:48:00,57.3,56.0,30.08,NW,320,0.0,0.0,95,0.00,,,0.00,weatherlink.com 1.10,2013-08-21 05:48:00,
2013-08-21 02:03:00,56.7,55.0,30.08,NW,320,0.0,0.0,95,0.00,,,0.00,weatherlink.com 1.10,2013-08-21 06:03:00,
2013-08-21 02:18:00,56.4,55.0,30.08,NW,320,0.0,0.0,96,0.00,,,0.00,weatherlink.com 1.10,2013-08-21 06:18:00,
2013-08-21 02:33:00,56.4,56.0,30.08,NW,320,0.0,0.0,97,0.00,,,0.00,weatherlink.com 1.10,2013-08-21 06:33:00,
2013-08-21 02:48:00,56.6,56.0,30.08,NW,320,0.0,0.0,97,0.00,,,0.00,weatherlink.com 1.10,2013-08-21 06:48:00,
2013-08-21 03:03:00,56.5,56.0,30.08,NW,320,0.0,0.0,97,0.00,,,0.00,weatherlink.com 1.10,2013-08-21 07:03:00,
2013-08-21 03:18:00,56.6,56.0,30.08,NW,320,0.0,1.0,97,0.00,,,0.00,weatherlink.com 1.10,2013-08-21 07:18:00,
2013-08-21 03:33:00,56.4,55.0,30.07,NW,320,0.0,2.0,96,0.00,,,0.00,weatherlink.com 1.10,2013-08-21 07:33:00,
2013-08-21 03:48:00,56.8,55.0,30.08,NW,320,0.0,0.0,95,0.00,,,0.00,weatherlink.com 1.10,2013-08-21 07:48:00,
2013-08-21 04:03:00,56.9,55.0,30.08,NW,320,0.0,0.0,94,0.00,,,0.00,weatherlink.com 1.10,2013-08-21 08:03:00,
2013-08-21 04:18:00,57.1,55.0,30.08,NW,320,0.0,0.0,94,0.00,,,0.00,weatherlink.com 1.10,2013-08-21 08:18:00,
2013-08-21 04:33:00,57.0,55.0,30.09,NW,320,0.0,0.0,94,0.00,,,0.00,weatherlink.com 1.10,2013-08-21 08:33:00,
2013-08-21 04:48:00,56.8,55.0,30.09,NW,320,0.0,1.0,95,0.00,,,0.00,weatherlink.com 1.10,2013-08-21 08:48:00,
2013-08-21 05:03:00,56.8,55.0,30.09,NNW,337,0.0,1.0,94,0.00,,,0.00,weatherlink.com 1.10,2013-08-21 09:03:00,
2013-08-21 05:18:00,56.5,55.0,30.09,NNW,337,0.0,0.0,95,0.00,,,0.00,weatherlink.com 1.10,2013-08-21 09:18:00,
2013-08-21 05:33:00,56.6,55.0,30.09,NNW,337,0.0,1.0,95,0.00,,,0.00,weatherlink.com 1.10,2013-08-21 09:33:00,
2013-08-21 05:48:00,56.2,55.0,30.09,NNW,337,0.0,0.0,94,0.00,,,0.00,weatherlink.com 1.10,2013-08-21 09:48:00,
2013-08-21 06:03:00,55.9,55.0,30.10,NNW,337,0.0,1.0,95,0.00,,,0.00,weatherlink.com 1.10,2013-08-21 10:03:00,
2013-08-21 06:18:00,56.3,55.0,30.10,NNW,337,0.0,0.0,96,0.00,,,0.00,weatherlink.com 1.10,2013-08-21 10:18:00,
2013-08-21 06:33:00,56.9,55.0,30.11,NNW,337,0.0,2.0,94,0.00,,,0.00,weatherlink.com 1.10,2013-08-21 10:33:00,
2013-08-21 06:48:00,57.1,55.0,30.10,NNW,337,0.0,1.0,94,0.00,,,0.00,weatherlink.com 1.10,2013-08-21 10:48:00,
2013-08-21 07:03:00,57.0,56.0,30.10,NNW,337,0.0,0.0,95,0.00,,,0.00,weatherlink.com 1.10,2013-08-21 11:03:00,
2013-08-21 07:18:00,57.7,56.0,30.11,NNW,337,0.0,1.0,95,0.00,,,0.00,weatherlink.com 1.10,2013-08-21 11:18:00,
2013-08-21 07:33:00,58.6,57.0,30.11,NNW,337,1.0,2.0,94,0.00,,,0.00,weatherlink.com 1.10,2013-08-21 11:33:00,
2013-08-21 07:48:00,59.5,58.0,30.11,NNW,337,0.0,2.0,94,0.00,,,0.00,weatherlink.com 1.10,2013-08-21 11:48:00,
2013-08-21 08:03:00,60.6,59.0,30.11,NNW,337,1.0,2.0,93,0.00,,,0.00,weatherlink.com 1.10,2013-08-21 12:03:00,
2013-08-21 08:18:00,62.3,58.0,30.11,NNW,338,1.0,3.0,87,0.00,,,0.00,weatherlink.com 1.10,2013-08-21 12:18:00,
2013-08-21 08:33:00,63.5,59.0,30.10,NNW,338,2.0,3.0,85,0.00,,,0.00,weatherlink.com 1.10,2013-08-21 12:33:00,
2013-08-21 08:48:00,65.2,60.0,30.11,NNW,342,2.0,4.0,83,0.00,,,0.00,weatherlink.com 1.10,2013-08-21 12:48:00,
2013-08-21 09:03:00,67.0,60.0,30.10,NNE,28,2.0,5.0,79,0.00,,,0.00,weatherlink.com 1.10,2013-08-21 13:03:00,
2013-08-21 09:19:00,68.3,60.0,30.10,NNE,12,3.0,6.0,75,0.00,,,0.00,weatherlink.com 1.10,2013-08-21 13:19:00,
2013-08-21 09:33:00,69.3,61.0,30.10,NE,40,2.0,6.0,74,0.00,,,0.00,weatherlink.com 1.10,2013-08-21 13:33:00,
2013-08-21 09:48:00,70.1,61.0,30.10,NNW,328,0.0,5.0,74,0.00,,,0.00,weatherlink.com 1.10,2013-08-21 13:48:00,
2013-08-21 10:03:00,71.3,63.0,30.10,ENE,74,3.0,5.0,75,0.00,,,0.00,weatherlink.com 1.10,2013-08-21 14:03:00,
2013-08-21 10:18:00,72.4,61.0,30.10,NE,42,1.0,5.0,68,0.00,,,0.00,weatherlink.com 1.10,2013-08-21 14:18:00,
2013-08-21 10:33:00,72.8,61.0,30.09,NW,324,1.0,7.0,66,0.00,,,0.00,weatherlink.com 1.10,2013-08-21 14:33:00,
2013-08-21 10:48:00,72.3,60.0,30.09,ENE,72,2.0,9.0,66,0.00,,,0.00,weatherlink.com 1.10,2013-08-21 14:48:00,
2013-08-21 11:03:00,72.1,60.0,30.09,North,5,5.0,10.0,65,0.00,,,0.00,weatherlink.com 1.10,2013-08-21 15:03:00,
2013-08-21 11:18:00,73.0,61.0,30.09,NNW,342,0.0,8.0,67,0.00,,,0.00,weatherlink.com 1.10,2013-08-21 15:18:00,
2013-08-21 11:33:00,73.6,61.0,30.09,North,10,6.0,8.0,65,0.00,,,0.00,weatherlink.com 1.10,2013-08-21 15:33:00,
2013-08-21 11:48:00,73.9,60.0,30.09,NNE,16,4.0,8.0,63,0.00,,,0.00,weatherlink.com 1.10,2013-08-21 15:48:00,
2013-08-21 12:03:00,74.6,61.0,30.08,NNW,342,2.0,7.0,62,0.00,,,0.00,weatherlink.com 1.10,2013-08-21 16:03:00,
2013-08-21 12:18:00,74.7,61.0,30.08,NNE,12,2.0,7.0,62,0.00,,,0.00,weatherlink.com 1.10,2013-08-21 16:18:00,
2013-08-21 12:33:00,74.5,61.0,30.07,North,355,4.0,7.0,63,0.00,,,0.00,weatherlink.com 1.10,2013-08-21 16:33:00,
2013-08-21 12:48:00,76.5,61.0,30.07,NNW,331,2.0,9.0,59,0.00,,,0.00,weatherlink.com 1.10,2013-08-21 16:48:00,
2013-08-21 13:03:00,76.6,59.0,30.06,North,360,5.0,13.0,55,0.00,,,0.00,weatherlink.com 1.10,2013-08-21 17:03:00,
2013-08-21 13:18:00,76.4,59.0,30.06,South,169,1.0,6.0,55,0.00,,,0.00,weatherlink.com 1.10,2013-08-21 17:18:00,
2013-08-21 13:33:00,77.2,59.0,30.05,SE,146,2.0,10.0,54,0.00,,,0.00,weatherlink.com 1.10,2013-08-21 17:33:00,
2013-08-21 13:48:00,77.2,59.0,30.05,South,182,3.0,8.0,53,0.00,,,0.00,weatherlink.com 1.10,2013-08-21 17:48:00,
2013-08-21 14:03:00,77.4,60.0,30.05,WSW,250,4.0,10.0,55,0.00,,,0.00,weatherlink.com 1.10,2013-08-21 18:03:00,
2013-08-21 14:18:00,77.2,59.0,30.04,WSW,252,5.0,10.0,53,0.00,,,0.00,weatherlink.com 1.10,2013-08-21 18:18:00,
2013-08-21 14:33:00,77.9,59.0,30.04,ENE,58,2.0,7.0,53,0.00,,,0.00,weatherlink.com 1.10,2013-08-21 18:33:00,
2013-08-21 14:49:00,77.3,57.0,30.03,East,84,1.0,7.0,49,0.00,,,0.00,weatherlink.com 1.10,2013-08-21 18:49:00,
2013-08-21 15:04:00,78.0,61.0,30.03,North,9,3.0,7.0,56,0.00,,,0.00,weatherlink.com 1.10,2013-08-21 19:04:00,
2013-08-21 15:19:00,78.0,60.0,30.03,SSW,204,6.0,7.0,54,0.00,,,0.00,weatherlink.com 1.10,2013-08-21 19:19:00,
2013-08-21 15:34:00,78.6,61.0,30.02,WSW,254,3.0,4.0,55,0.00,,,0.00,weatherlink.com 1.10,2013-08-21 19:34:00,
2013-08-21 15:49:00,77.0,65.0,30.02,South,186,2.0,7.0,67,0.00,,,0.00,weatherlink.com 1.10,2013-08-21 19:49:00,
2013-08-21 16:04:00,78.2,65.0,30.01,NE,47,1.0,3.0,64,0.00,,,0.00,weatherlink.com 1.10,2013-08-21 20:04:00,
2013-08-21 16:19:00,77.1,65.0,30.00,SW,221,0.0,6.0,66,0.00,,,0.00,weatherlink.com 1.10,2013-08-21 20:19:00,
2013-08-21 16:34:00,77.9,66.0,30.00,SSW,202,4.0,6.0,66,0.00,,,0.00,weatherlink.com 1.10,2013-08-21 20:34:00,
2013-08-21 16:49:00,77.0,65.0,30.00,SW,219,1.0,4.0,67,0.00,,,0.00,weatherlink.com 1.10,2013-08-21 20:49:00,
2013-08-21 17:04:00,78.6,65.0,30.00,WSW,240,1.0,3.0,64,0.00,,,0.00,weatherlink.com 1.10,2013-08-21 21:04:00,
2013-08-21 17:19:00,78.7,66.0,29.99,WSW,254,2.0,4.0,65,0.00,,,0.00,weatherlink.com 1.10,2013-08-21 21:19:00,
2013-08-21 17:34:00,77.4,64.0,29.99,West,263,0.0,5.0,64,0.00,,,0.00,weatherlink.com 1.10,2013-08-21 21:34:00,
2013-08-21 17:49:00,77.4,65.0,29.98,SSW,207,0.0,5.0,66,0.00,,,0.00,weatherlink.com 1.10,2013-08-21 21:49:00,
2013-08-21 18:04:00,76.8,60.0,29.98,SSW,211,2.0,3.0,57,0.00,,,0.00,weatherlink.com 1.10,2013-08-21 22:04:00,
2013-08-21 18:19:00,75.1,60.0,29.98,ENE,57,0.0,4.0,59,0.00,,,0.00,weatherlink.com 1.10,2013-08-21 22:19:00,
2013-08-21 18:34:00,73.2,58.0,29.98,NE,52,2.0,3.0,59,0.00,,,0.00,weatherlink.com 1.10,2013-08-21 22:34:00,
2013-08-21 18:49:00,72.0,57.0,29.98,NE,46,0.0,6.0,60,0.00,,,0.00,weatherlink.com 1.10,2013-08-21 22:49:00,
2013-08-21 19:04:00,71.4,59.0,29.98,NE,50,0.0,4.0,66,0.00,,,0.00,weatherlink.com 1.10,2013-08-21 23:04:00,
2013-08-21 19:19:00,71.1,58.0,29.98,SSW,200,1.0,5.0,63,0.00,,,0.00,weatherlink.com 1.10,2013-08-21 23:19:00,
2013-08-21 19:34:00,70.2,58.0,29.98,SE,144,0.0,3.0,65,0.00,,,0.00,weatherlink.com 1.10,2013-08-21 23:34:00,
2013-08-21 19:49:00,68.3,58.0,29.98,ESE,113,1.0,3.0,70,0.00,,,0.00,weatherlink.com 1.10,2013-08-21 23:49:00,
2013-08-21 20:04:00,66.3,58.0,29.98,SSE,157,1.0,2.0,74,0.00,,,0.00,weatherlink.com 1.10,2013-08-22 00:04:00,
2013-08-21 20:19:00,65.2,57.0,29.99,SSW,205,1.0,2.0,75,0.00,,,0.00,weatherlink.com 1.10,2013-08-22 00:19:00,
2013-08-21 20:34:00,65.5,57.0,29.98,SE,137,0.0,3.0,75,0.00,,,0.00,weatherlink.com 1.10,2013-08-22 00:34:00,
2013-08-21 20:49:00,64.9,58.0,29.98,SE,140,0.0,3.0,77,0.00,,,0.00,weatherlink.com 1.10,2013-08-22 00:49:00,
2013-08-21 21:05:00,64.1,57.0,29.99,SE,140,0.0,1.0,79,0.00,,,0.00,weatherlink.com 1.10,2013-08-22 01:05:00,
2013-08-21 21:20:00,63.3,57.0,30.00,SSW,195,0.0,3.0,81,0.00,,,0.00,weatherlink.com 1.10,2013-08-22 01:20:00,
2013-08-21 21:35:00,62.5,57.0,29.99,SE,145,0.0,3.0,83,0.00,,,0.00,weatherlink.com 1.10,2013-08-22 01:35:00,
2013-08-21 21:50:00,62.6,57.0,29.99,SSW,209,0.0,3.0,83,0.00,,,0.00,weatherlink.com 1.10,2013-08-22 01:50:00,
2013-08-21 22:05:00,62.8,58.0,29.99,WSW,242,2.0,3.0,83,0.00,,,0.00,weatherlink.com 1.10,2013-08-22 02:05:00,
2013-08-21 22:20:00,62.3,57.0,29.98,WSW,242,0.0,2.0,83,0.00,,,0.00,weatherlink.com 1.10,2013-08-22 02:20:00,
2013-08-21 22:35:00,61.7,57.0,29.98,WSW,237,0.0,3.0,85,0.00,,,0.00,weatherlink.com 1.10,2013-08-22 02:35:00,
2013-08-21 22:50:00,61.3,57.0,29.98,WSW,237,0.0,2.0,86,0.00,,,0.00,weatherlink.com 1.10,2013-08-22 02:50:00,
2013-08-21 23:05:00,60.7,57.0,29.98,WSW,237,0.0,2.0,87,0.00,,,0.00,weatherlink.com 1.10,2013-08-22 03:05:00,
2013-08-21 23:20:00,60.6,56.0,29.97,SW,229,0.0,3.0,86,0.00,,,0.00,weatherlink.com 1.10,2013-08-22 03:20:00,
2013-08-21 23:35:00,60.6,57.0,29.96,SW,229,0.0,2.0,87,0.00,,,0.00,weatherlink.com 1.10,2013-08-22 03:35:00,
2013-08-21 23:50:00,60.3,57.0,29.97,SW,229,2.0,2.0,88,0.00,,,0.00,weatherlink.com 1.10,2013-08-22 03:50:00,